Location: Ar Ranvel
(48.3000°N, 4.8833°W)
Time: 09:36:42
(UTC+00:00)

Cosmos 1900 - Pass Details

Date: 16 June 2021
Orbit: 691 x 730 km, 66.1° (Epoch: 01 August)

Event Time Altitude Azimuth Distance (km) Brightness Sun altitude
Rises 22:28:18 0° 321° (NW) 3,092 9.4 -14.0°
Reaches altitude 10° 22:30:40 10° 319° (NW) 2,166 8.1 -14.2°
Maximum altitude 22:35:32 64° 239° (WSW) 769 4.5 -14.6°
Enters shadow 22:38:26 24° 164° (SSE) 1,430 5.3 -14.8°
